Location: Antioch Baptist Church
(32.6696°N, 85.7327°W)
Time: 10:43:23
(UTC+00:00)

Cosmos 1943 Rocket - Pass Details

Date: 14 July 2020
Orbit: 811 x 845 km, 71.0° (Epoch: 08 August)

Event Time Altitude Azimuth Distance (km) Brightness Sun altitude
Rises 04:53:49 0° 336° (NNW) 3,403 6.4 -34.2°
Reaches altitude 10° 04:56:17 10° 335° (NNW) 2,462 5.4 -34.3°
Enters shadow 04:59:54 41° 323° (NW) 1,208 3.3 -34.5°
